Preview of NWS' New Version of Forecast
This preview is not operational and should not be used for support decisions.
Latest weather observations around

Marietta, Cobb County-McCollum Field Airport (KRYY)

Using International System of Units (Switch to English Units)
Date/ Time (EST) Wind (kph) Vis. (km) Weather Sky Cond. Temp (°C) Rel. Humidity Wind Chill (°C) Heat Index (°C) Pressure Precip. (cm)
Air Dwpt 6 hour Altimeter (hPa) Sea level (hPa) 1 hr 3 hr 6 hr
Max Min
Feb 18 16:48 NNW 11 16.09 Clear CLR 9 -1     50% 8            
Feb 18 15:48 NNW 18 16.09 Clear CLR 12 -3     36%              
Feb 18 14:48 NNW 13 16.09 Clear CLR 13 -1     40%              
Feb 18 13:48 NW 13 16.09 Clear CLR 12 2     50%              
Feb 18 12:48 NW 15 16.09 Clear CLR 11 3     57%              
Feb 18 11:48 WNW 15 16.09 Clear CLR 9 3     66% 7            
Feb 18 10:48 WNW 15 16.09 Mostly Clear FEW020 9 4     71% 7            
Feb 18 10:06 NNW 18 16.09 Partly Cloudy SCT018 8 3     71% 5   1023        
Feb 18 09:48 WNW 18 16.09 Cloudy OVC016 8 4     79% 5            
Feb 18 08:48 NW 15 16.09 Mostly Cloudy BKN016 7 4     85% 4            
Feb 18 08:20 NW 13 16.09 Mostly Cloudy BKN016 7 4     81% 5   1020.7        
Feb 18 07:54 NNW 15 16.09 Cloudy OVC009 7 5     87% 4   1020        
Feb 18 07:48 NNW 15 16.09 Cloudy SCT009 OVC016 7 5     86% 5            
Feb 18 07:45 NNW 15 16.09 Cloudy SCT009 OVC016 7 5     87% 4   1019.7        
Feb 18 06:48 WNW 13 16.09 Cloudy OVC009 7 6     93% 5           0
Feb 18 05:48 9 16.09 Cloudy OVC007 7 7     97% 5       0    
Feb 18 05:22 WNW 13 16.09 Cloudy BKN009 BKN065 OVC080 8 7     93% 6   1016.3   0    
Feb 18 04:48 WNW 13 16.09 Light Rain FEW009 BKN060 OVC075 8 7     90% 6       0    
Feb 18 04:36   16.09 Clear   9 7     87%     1016.3   0    
Feb 18 03:48   16.09 Clear   9 8     96%         0 0  
Feb 18 02:48 Calm 16.09 Light Rain OVC003 8 7     96%         0    
Feb 18 01:48 Calm 16.09 Cloudy OVC003 7 7     97%              
Feb 18 00:48 Calm 14.48 Cloudy OVC003 7 7     97%         0   0
Feb 17 23:48 Calm 14.48 Light Rain OVC003 7 7     97%         0    
Feb 17 23:28 5 11.27 Light Rain BKN003 OVC032 7 7     100% 6   1014.2   0    
Feb 17 23:22 5 12.87 Light Rain SCT003 BKN010 OVC032 7 7     100% 6   1013.9   0    
Feb 17 22:48 Calm 11.27 Light Rain BKN003 OVC040 7 7     97%         0    
Feb 17 22:45 Calm 11.27 Light Rain BKN003 OVC038 7 7     100%     1013.9   0    
Feb 17 21:48 11 3.22 Light Rain and Fog/Mist BKN003 OVC035 7 7     100% 4       0 0  
Feb 17 21:30 E 15 1.61 Light Rain and Fog/Mist OVC002 7 6     93% 4   1013.6   0    
Feb 17 20:48 9 0.8 Light Rain and Fog OVC002 7 7     97% 5       0    
Feb 17 19:48   0.4 Light Rain and Fog OVC002 7 7     100%         0    
Feb 17 19:30   0.4 Fog OVC002 7 7     100%     1011.2   0    
Feb 17 19:06   0.8 Light Rain and Fog OVC002 7 7     100%     1010.8   0    
Feb 17 18:48   1.61 Fog/Mist OVC002 7 7     97%         0   0
Feb 17 18:43   1.61 Fog/Mist OVC002 7 7     100%     1011.2   0    
Feb 17 17:48 E 18 3.22 Light Rain and Fog/Mist OVC004 8 7     96% 5       0    
Feb 17 16:53 11 16.09 Light Rain OVC004 8 7     93% 6   1011.2   0    
Feb 17 16:48 ESE 13 2.41 Light Rain and Fog/Mist OVC004 8 7     96% 6       0    
Feb 17 16:40 E 15 2.41 Light Rain and Fog/Mist OVC006 8 7     93% 5   1011.5   0    
Feb 17 15:48 E 15 2.41 Light Rain and Fog/Mist OVC004 8 7     96% 5       0 0  
Feb 17 14:48   1.61 Light Rain and Fog/Mist OVC004 8 8     100%         0    
Feb 17 14:40 ESE 15 4.02 Light Rain and Fog/Mist OVC004 8 8     100% 5   1012.5   0    
Feb 17 13:48 ESE 15 11.27 Light Rain OVC004 8 8     97% 6       0    
Feb 17 12:48 E 18 11.27 Cloudy OVC004 8 8     97% 5       0   0
Feb 17 11:48 E 18 9.66 Fog/Mist OVC004 8 7     96% 5       0    
Feb 17 11:35 E 18 8.05 Fog/Mist OVC004 8 7     93% 5   1015.2   0    
Feb 17 10:48 E 18 3.22 Light Rain and Fog/Mist OVC006 8 7     96% 5       0    
Feb 17 10:45 E 18 4.02 Light Rain and Fog/Mist OVC006 8 7     93% 5   1014.6   0    
Feb 17 09:48 ESE 15 16.09 Cloudy OVC008 8 7     93% 6       0 0  
Feb 17 08:59 E 17 11.27 Light Rain OVC008 8 7     93% 5   1014.2   0    
Feb 17 08:48 ESE 17 16.09 Light Rain OVC010 8 7     93% 6       0    
Feb 17 07:48   16.09 Light Rain OVC010 9 8     93%         0    
Feb 17 06:48 E 18 16.09 Cloudy OVC010 9 8     90% 7       0   0
Feb 17 05:48 E 15 16.09 Cloudy OVC010 9 8     93% 7       0    
Feb 17 05:22 E 18 16.09 Cloudy OVC010 9 8     93% 6   1011.9        
Feb 17 04:48 E 13 16.09 Cloudy OVC008 9 8     93% 7       0    
Feb 17 03:48 E 9 16.09 Light Rain OVC008 9 8     93% 7       0 0  
Feb 17 02:48 E 5 16.09 Cloudy BKN008 BKN020 OVC100 8 7     93% 8            
Feb 17 02:24 ENE 5 16.09 Cloudy FEW008 OVC022 8 7     93% 7   1012.2        
Feb 17 01:48 E 9 16.09 Cloudy OVC022 8 7     93% 6            
Feb 17 01:32 Calm 16.09 Clear   8 7     93%     1012.2        
Feb 17 00:48 5 16.09 Clear   7 6     93% 6            
Feb 16 23:48 E 5 16.09 Clear CLR 7 6     93% 6            
Feb 16 22:48 ESE 8 16.09 Partly Cloudy SCT025 8 6     89% 7            
Feb 16 22:34 5 16.09 Cloudy FEW007 BKN025 OVC030 8 6     87% 7   1011.9        
Feb 16 22:23 Calm 16.09 Cloudy OVC029 8 6     87%     1011.9        
Feb 16 21:53 Calm 16.09 Cloudy OVC031 8 6     87%     1012.2        
Feb 16 21:48 Calm 16.09 Mostly Cloudy BKN010 8 6     89%              
Feb 16 20:48 NNW 5 16.09 Mostly Cloudy BKN010 8 7     93% 7            
Feb 16 19:48 NNW 5 16.09 Mostly Cloudy BKN012 8 7     90% 8            
Feb 16 18:48 WNW 8 16.09 Cloudy OVC012 9 7     86% 8           0
Feb 16 17:48 9 16.09 Cloudy OVC012 9 7     83% 8            
Feb 16 16:48 NW 13 16.09 Cloudy OVC012 10 7     83%              
Feb 16 15:48 NW 11 16.09 Cloudy OVC010 10 8     86%           0  
Feb 16 14:48 WNW 9 16.09 Cloudy OVC010 10 8     86%              
Feb 16 14:13 W 18 16.09 Cloudy OVC010 10 8     87%     1009.2        
Feb 16 13:48 WNW 17 16.09 Cloudy OVC008 10 8     86%         0    
Feb 16 12:48 WNW 15 16.09 Cloudy OVC008 9 8     90% 7            
Feb 16 11:48 NW 11 16.09 Cloudy OVC006 9 8     93% 7            
Feb 16 11:42 NW 15 16.09 Cloudy OVC006 9 8     93% 7   1010.2        
Feb 16 10:48 W 13 16.09 Cloudy OVC004 9 8     96% 7            
Feb 16 09:48 WNW 13 16.09 Cloudy OVC004 9 8     96% 7            
Feb 16 08:48 11 16.09 Cloudy OVC004 9 8     93% 7            
Feb 16 07:48 W 15 16.09 Mostly Cloudy BKN004 9 9     97% 7            
Feb 16 06:48 W 8 16.09 Cloudy FEW007 BKN049 OVC080 11 9     92%         0   0
Feb 16 06:43 W 9 16.09 Cloudy SCT007 BKN037 OVC060 11 10     94%     1007.5   0    
Feb 16 05:48 SW 15 16.09 Light Rain BKN007 OVC014 16 14     93%         0    
Feb 16 04:48 SW 15 16.09 Light Rain OVC007 16 14     93%         0    
Feb 16 03:48 SW 15 16.09 Cloudy OVC007 16 14     93%           0  
Feb 16 03:02 SW 13 16.09 Cloudy OVC007 15 14     94%     1006.1        
Feb 16 02:48 SW 13 11.27 Cloudy OVC005 15 14     96%         0    
Feb 16 01:48 SW 11 11.27 Light Rain OVC005 14 14     97%         0    
Feb 16 00:48 SSW 13 8.05 Light Rain and Fog/Mist OVC005 14 14     97%         0   0
Feb 15 23:48 SW 9 16.09 Light Rain OVC005 14 14     97%         0    
Feb 15 23:39 SSW 5 16.09 Light Rain OVC005 14 14     100%     1008.5   0    
Feb 15 23:29 SSW 9 16.09 Cloudy OVC007 14 14     100%     1008.5   0    
Feb 15 22:48 S 9 16.09 Cloudy OVC005 14 14     97%         0    
Feb 15 21:48 Calm 11.27 Light Rain OVC005 14 13     96%         0 0  
Feb 15 21:03 Calm 6.44 Light Rain and Fog/Mist OVC005 14 13     94%     1009.8   0    
Feb 15 20:53 S 5 9.66 Light Rain and Fog/Mist OVC007 14 13     94%     1010.2   0    
Feb 15 20:48 SSE 5 8.05 Light Rain and Fog/Mist FEW007 BKN028 OVC065 13 13     100%         0    
Feb 15 19:48 Calm 11.27 Light Rain FEW007 BKN028 OVC060 14 13     93%         0    
Feb 15 19:42 S 8 12.87 Light Rain SCT007 BKN028 OVC055 14 13     94%     1010.8   0    
Feb 15 18:48 Calm 16.09 Cloudy OVC009 14 13     93%              
Feb 15 17:48 SSW 5 16.09 Cloudy OVC009 14 12     87%              
May 15 02:48 SE 9 16.09 Clear CLR 23 17     66%   23          
May 14 17:48 WNW 9 16.09 Cloudy BKN060 OVC080 31 17     43%   32          
May 14 05:48 Calm 16.09 Clear   18 17     90%              
May 14 01:48 Calm 16.09 Clear CLR 21 17     78%              
May 13 23:48 Calm 16.09 Clear CLR 22 18     76%   22          
May 13 10:48 Calm 16.09 Clear CLR 28 16     47%   28          
May 12 03:48 Calm 16.09 Clear CLR 19 17     90%              
May 11 23:48 Calm 16.09 Clear CLR 22 18     81%   22          
May 11 21:48 Calm 16.09 Clear CLR 24 18     71%   24          
May 11 19:48 5 16.09 Clear CLR 29 16     46%   29          
Jun 11 22:47 E 8 16.09 Partly Cloudy SCT070 26 20     70%   26 1021        
Jun 11 15:47 E 11 16.09 Partly Cloudy SCT050 SCT090 31 20     52%   33 1020        
Jun 10 19:50 Calm 16.09 Partly Cloudy SCT070 27 16     51%   27 1017.6        
Jun 07 21:47 W 9 16.09 Clear CLR 22 12     53%   22 1009.8        
Jun 07 11:47 NE 11 16.09 Clear   23 15     61%   23 1010.2